Meath Environmental Platform

Observations for Trim Market St

Time AQI Temp °C Hum % Pres Pa CO μg/m³ H₂S μg/m³ NO μg/m³ NO₂ μg/m³ O₃ μg/m³ SO₂ μg/m³ PM1 μg/m³ PM2.5 μg/m³ PM10 μg/m³
Wednesday 15 July 2026
20:09 1 24.8 50 55,829 0 0 0 8.25 37.75 0 7.13 10.67 14.97
20:08 1 24.8 50 55,902 0 0 0 7.87 32.51 0 7.13 11.19 15.72
20:07 1 24.8 50 56,003 0 0 0 7.48 37.34 0 7.84 10.68 15.72
20:06 1 24.8 50 56,152 0 0 0 5.09 38.84 0 7.13 10.68 14.98
20:02 1 25 50 56,563 0 0 0 7.57 37 0 8.55 11.73 15.75
20:00 1 25.1 50 56,845 0 0 0 6.85 36.69 0 8.55 13.29 18.75
19:58 1 25.1 49 57,027 0 0 0 6.88 37.68 0 9.26 11.75 16.52
19:50 1 25.3 49 59,079 0 0 0 5.8 37.36 0 9.26 13.35 18.07
19:48 1 25.4 48 59,376 0 0 0 7.1 35.9 0 7.84 11.3 15.07
19:47 1 25.4 48 59,557 0 0 0 6.11 33.29 0 8.55 11.82 16.59
19:46 1 25.4 48 59,674 0 0 0 6.41 36.53 0 8.55 13.37 18.85
19:45 1 25.5 48 59,745 0 0 0 5.99 33.25 0 9.26 12.35 17.35
19:43 1 25.5 48 59,737 0 0 0 6.49 31.3 0 7.84 11.31 15.08
19:41 1 25.6 48 59,676 0 0 0 7.78 33.78 0 8.55 11.84 15.85
19:40 1 25.6 48 59,717 0 0 0 7.08 33.96 0 6.41 10.29 15.09
19:39 1 25.6 48 59,737 0 0 0 6.68 32.25 0 7.84 13.39 19.63
19:38 1 25.6 48 59,723 0 0 0 6.39 35.12 0 8.55 11.84 15.85
19:36 1 25.7 48 59,821 0 0 0 6.57 34.04 0 9.26 12.37 16.62
19:30 1 25.8 48 60,104 0 0 0 7.89 37.21 0 7.13 9.81 15.13
19:28 1 25.8 47 60,554 0 0 0 6.71 35.09 0 6.41 10.34 14.38